This is the latest recevied weather packets stored in our database for station/object NR6G-15. If no packets are shown the sender has not sent any weather packets the latest 10 day(s).
| Time | Temp. | Humidity | Pressure | Rain* | Wind** | Luminosity | Snow |
|---|---|---|---|---|---|---|---|
| 1788043696 | 20.56° C | 54% | 1023.6 hPa | 0 mm | - | - | - |
| 1788043396 | 21.11° C | 53% | 1023.7 hPa | 0 mm | - | - | - |
| 1788043096 | 20.56° C | 57% | 1023.7 hPa | 0 mm | - | - | - |
| 1788042796 | 20.56° C | 56% | 1023.8 hPa | 0 mm | - | - | - |
| 1788042496 | 20.56° C | 53% | 1024 hPa | 0 mm | - | - | - |
| 1788042196 | 21.11° C | 53% | 1024 hPa | 0 mm | - | - | - |
| 1788041614 | 20.56° C | 56% | 1024.2 hPa | 0 mm | - | - | - |
| 1788041314 | 21.11° C | 55% | 1024.3 hPa | 0 mm | - | - | - |
| 1788041015 | 20.56° C | 58% | 1024.3 hPa | 0 mm | - | - | - |
| 1788040714 | 20.56° C | 58% | 1024.4 hPa | 0 mm | - | - | - |
| 1788040414 | 20.56° C | 58% | 1023.7 hPa | 0 mm | - | - | - |
| 1788040114 | 20° C | 58% | 1023.8 hPa | 0 mm | - | - | - |
| 1788039814 | 20° C | 58% | 1023.9 hPa | 0 mm | - | - | - |
| 1788039514 | 20.56° C | 59% | 1023.9 hPa | 0 mm | - | - | - |
| 1788039214 | 20.56° C | 60% | 1024 hPa | 0 mm | - | - | - |
| 1788038914 | 20° C | 59% | 1024 hPa | 0 mm | - | - | - |
| 1788038614 | 20° C | 61% | 1024 hPa | 0 mm | - | - | - |
| 1788038314 | 20.56° C | 60% | 1024 hPa | 0 mm | - | - | - |
| 1788038014 | 20° C | 60% | 1024 hPa | 0 mm | - | - | - |
| 1788037714 | 20° C | 61% | 1024.1 hPa | 0 mm | - | - | - |
| 1788037414 | 20° C | 61% | 1024.2 hPa | 0 mm | - | - | - |
| 1788037114 | 20° C | 61% | 1024.2 hPa | 0 mm | - | - | - |
| 1788036814 | 20° C | 62% | 1024.2 hPa | 0 mm | - | - | - |
| 1788036514 | 20° C | 62% | 1024.2 hPa | 0 mm | - | - | - |
| 1788036214 | 20° C | 63% | 1024.2 hPa | 0 mm | - | - | - |
* Rain latest hour (hover to see other rain measurements)
** Current wind speed in m/s (hover to see current wind gust speed)